[[{"header":{"parameterUnit":"m.s-1","parameterCategory":1,"la1":30.2991,"la2":30.254,"lo1":-89.0895,"lo2":-89.0444,"dy":0.0017,"dx":0.0017,"nx":28,"ny":28,"refTime":"2025-04-18T03:00:00:Z","depth":0,"parameterNumber":2,"parameterNumberName":"U-component_of_WINDS"},"data":[0,0,0,0,0,0,0,0,0,0,0,0,0,0,0,0,0,0,0,0,0,0,0,0,0,0,0,0,0,0,0,0,0,0,0,0,0,0,0,0,0,0,0,0,0,0,0,0,0,0,0,0,0,0,0,0,0,0,-0.5013,-0.5013,0,-0.5012,-0.5012,-0.5012,-0.5012,-0.5012,-0.5012,-0.5012,-0.5012,-0.5012,-0.5012,0,0,0,0,0,0,0,0,0,0,0,0,0,-0.5015,-0.5015,-0.5013,-0.5013,-0.5013,-0.5012,-0.5012,-0.5012,-0.5012,-0.5012,-0.5012,-0.5013,-0.5012,-0.5012,-0.5012,0,0,0,0,0,0,0,0,0,0,0,0,0,-0.5014,-0.5015,-0.5013,-0.5013,-0.5013,-0.5012,-0.5012,-0.5012,-0.5012,-0.5012,-0.5012,-0.5013,-0.5012,-0.5012,-0.5012,-0.5012,0,0,-0.5012,-0.5012,0,0,0,0,0,0,0,0,-0.5014,-0.5014,-0.5013,-0.5013,-0.5013,-0.5012,-0.5013,-0.5012,-0.5012,-0.5013,-0.5012,-0.5013,-0.5012,-0.5012,-0.5012,-0.5012,-0.5012,-0.5012,-0.5012,-0.5012,-0.5012,0,0,0,0,0,0,0,-0.5014,-0.5014,-0.5013,-0.5013,-0.5013,-0.5013,-0.5013,-0.5013,-0.5012,-0.5013,-0.5013,-0.5013,-0.5012,-0.5012,-0.5012,-0.5012,-0.5012,-0.5012,-0.5012,-0.5012,-0.5012,-0.5012,0,0,0,0,0,0,-0.5014,-0.5014,-0.5013,-0.5013,-0.5014,-0.5013,-0.5013,-0.5013,-0.5012,-0.5012,-0.5013,-0.5013,-0.5012,-0.5012,-0.5012,-0.5012,-0.5012,-0.5012,-0.5012,-0.5012,-0.5012,-0.5012,0,0,0,0,0,0,-0.5014,-0.5014,-0.5013,-0.5013,-0.5013,-0.5013,-0.5013,-0.5013,-0.5012,-0.5012,-0.5012,-0.5012,-0.5012,-0.5012,-0.5012,-0.5012,-0.5012,-0.5012,-0.5012,-0.5012,-0.5012,-0.5012,0,0,0,0,0,0,-0.5014,-0.5014,-0.5014,-0.5013,-0.5013,-0.5012,-0.5013,-0.5013,-0.5012,-0.5012,-0.5012,-0.5012,-0.5012,-0.5012,-0.5012,-0.5012,-0.5012,-0.5012,-0.5012,-0.5012,-0.5012,-0.5012,-0.5012,0,0,0,0,0,-0.5015,-0.5014,-0.5014,-0.5013,-0.5013,-0.5012,-0.5012,-0.5012,-0.5012,-0.5012,-0.5012,-0.5012,-0.5012,-0.5012,-0.5012,-0.5012,-0.5012,-0.5012,-0.5012,-0.5012,-0.5012,-0.5012,0,0,0,0,0,0,-0.5014,-0.5014,-0.5014,-0.5012,-0.5012,-0.5012,-0.5012,-0.5012,-0.5012,-0.5012,-0.5012,-0.5012,-0.5012,-0.5012,-0.5012,-0.5012,-0.5012,-0.5012,-0.5012,-0.5012,-0.5012,-0.5012,-0.5012,0,0,0,0,0,-0.5014,-0.5013,-0.5013,-0.5012,-0.5012,-0.5012,-0.5012,-0.5012,-0.5012,-0.5012,-0.5012,-0.5012,-0.5012,-0.5012,-0.5012,-0.5012,-0.5012,-0.5012,-0.5012,-0.5012,-0.5012,-0.5013,-0.5013,-0.5012,-0.5012,-0.5012,0,0,-0.5013,-0.5013,-0.5012,-0.5012,-0.5012,-0.5012,-0.5012,-0.5011,-0.5012,-0.5012,-0.5012,-0.5012,-0.5012,-0.5012,-0.5012,-0.5012,-0.5013,-0.5012,-0.5012,-0.5012,-0.5013,-0.5013,-0.5013,-0.5012,-0.5012,-0.5012,0,0,-0.5012,-0.5012,-0.5011,-0.5011,-0.5011,-0.5011,-0.5011,-0.5011,-0.5011,-0.5011,-0.5011,-0.5012,-0.5012,-0.5012,-0.5012,-0.5012,-0.5013,-0.5012,-0.5012,-0.5013,-0.5013,-0.5013,-0.5014,-0.5014,-0.5012,-0.5012,-0.5012,0,-0.5011,-0.5011,-0.5011,-0.5011,-0.5011,-0.5011,-0.5011,-0.5011,-0.5011,-0.5011,-0.5011,-0.5012,-0.5012,-0.5012,-0.5012,-0.5012,-0.5013,-0.5012,-0.5013,-0.5013,-0.5013,-0.5014,-0.5014,-0.5012,-0.5012,-0.5012,-0.5012,0,-0.501,-0.501,-0.501,-0.501,-0.501,-0.501,-0.501,-0.501,-0.501,-0.5011,-0.5011,-0.5011,-0.5012,-0.5012,-0.5012,-0.5013,-0.5013,-0.5013,-0.5013,-0.5013,-0.5014,-0.5014,-0.5012,-0.5012,-0.5012,-0.5012,0,0,-0.5008,-0.5009,-0.5009,-0.5009,-0.501,-0.5009,-0.501,-0.501,-0.501,-0.5011,-0.5011,-0.5011,-0.5012,-0.5012,-0.5012,-0.5013,-0.5014,-0.5013,-0.5013,-0.5013,-0.5015,-0.5015,-0.5015,-0.5014,-0.5014,-0.5014,-0.5015,0,-0.5008,-0.5008,-0.5008,-0.5008,-0.5008,-0.5009,-0.5009,-0.501,-0.501,-0.5011,-0.5011,-0.5012,-0.5012,-0.5012,-0.5013,-0.5013,-0.5014,-0.5013,-0.5015,-0.5015,-0.5015,-0.5015,-0.5015,-0.5016,-0.5015,-0.5015,-0.5015,0,-0.5007,-0.5007,-0.5007,-0.5008,-0.5008,-0.5008,-0.5009,-0.5009,-0.501,-0.5011,-0.5011,-0.5012,-0.5013,-0.5013,-0.5014,-0.5014,-0.5014,-0.5015,-0.5015,-0.5015,-0.5015,-0.5016,-0.5017,-0.5017,-0.5015,-0.5015,-0.5015,0,-0.5006,-0.5006,-0.5007,-0.5007,-0.5008,-0.5008,-0.5009,-0.5009,-0.501,-0.5011,-0.5011,-0.5012,-0.5013,-0.5014,-0.5015,-0.5014,-0.5016,-0.5016,-0.5017,-0.5017,-0.5017,-0.5017,-0.5018,-0.5017,-0.5017,-0.5017,-0.5017,0,-0.5005,-0.5005,-0.5006,-0.5007,-0.5007,-0.5008,-0.5008,-0.5009,-0.501,-0.5011,-0.5011,-0.5012,-0.5013,-0.5014,-0.5015,-0.5016,-0.5016,-0.5017,-0.5017,-0.5017,-0.5017,-0.5018,-0.5018,-0.5017,-0.5017,-0.5017,-0.5017,0,-0.5004,-0.5005,-0.5005,-0.5006,-0.5007,-0.5007,-0.5008,-0.5009,-0.501,-0.501,-0.5011,-0.5012,-0.5013,-0.5014,-0.5016,-0.5017,-0.5018,-0.5018,-0.5018,-0.5018,-0.5019,-0.5019,-0.5021,-0.5021,-0.5019,-0.5019,-0.5019,0,-0.5004,-0.5004,-0.5005,-0.5006,-0.5006,-0.5007,-0.5008,-0.5009,-0.5009,-0.5011,-0.5011,-0.5012,-0.5014,-0.5016,-0.5017,-0.5018,-0.5019,-0.5019,-0.5019,-0.5019,-0.5019,-0.5019,-0.502,-0.5019,-0.5019,-0.5019,-0.5019,0,-0.5003,-0.5004,-0.5004,-0.5005,-0.5006,-0.5007,-0.5008,-0.5008,-0.501,-0.5011,-0.5012,-0.5013,-0.5015,-0.5016,-0.5018,-0.5019,-0.502,-0.502,-0.502,-0.502,-0.502,-0.502,-0.5018,-0.5019,-0.5019,-0.5019,-0.5019,-0.5019,-0.5003,-0.5003,-0.5004,-0.5005,-0.5006,-0.5007,-0.5008,-0.5009,-0.501,-0.5012,-0.5012,-0.5014,-0.5015,-0.5018,-0.5019,-0.502,-0.502,-0.5021,-0.5021,-0.5021,-0.5021,-0.5019,-0.5021,-0.5021,-0.5021,-0.5021,-0.5021,0,-0.5002,-0.5003,-0.5004,-0.5006,-0.5007,-0.5007,-0.5009,-0.5009,-0.5011,-0.5012,-0.5013,-0.5015,-0.5017,-0.5019,-0.502,-0.5021,-0.5022,-0.5022,-0.5022,-0.5022,-0.5021,-0.5021,-0.5022,-0.5022,-0.5022,-0.5022,-0.5022,-0.5022,-0.5002,-0.5003,-0.5004,-0.5006,-0.5007,-0.5008,-0.5009,-0.501,-0.5012,-0.5014,-0.5015,-0.5016,-0.5018,-0.502,-0.5022,-0.5022,-0.5023,-0.5023,-0.5024,-0.5022,-0.5022,-0.5022,-0.5022,-0.5023,-0.5023,-0.5025,-0.5025,-0.5025]},{"header":{"parameterUnit":"m.s-1","parameterCategory":1,"la1":30.2991,"la2":30.254,"lo1":-89.0895,"lo2":-89.0444,"dy":0.0017,"dx":0.0017,"nx":28,"ny":28,"refTime":"2025-04-18T03:00:00:Z","depth":0,"parameterNumber":3,"parameterNumberName":"V-component_of_WINDS"},"data":[0,0,0,0,0,0,0,0,0,0,0,0,0,0,0,0,0,0,0,0,0,0,0,0,0,0,0,0,0,0,0,0,0,0,0,0,0,0,0,0,0,0,0,0,0,0,0,0,0,0,0,0,0,0,0,0,0,0,5.8539,5.8541,0,5.8697,5.8699,5.8701,5.8681,5.8679,5.8676,5.8674,5.8828,5.8834,5.8841,0,0,0,0,0,0,0,0,0,0,0,0,0,5.8213,5.8219,5.8539,5.8541,5.8543,5.8697,5.8699,5.8701,5.8682,5.8679,5.8676,5.8673,5.8826,5.8834,5.8841,0,0,0,0,0,0,0,0,0,0,0,0,0,5.8361,5.8221,5.8539,5.8552,5.8555,5.8696,5.8699,5.8702,5.8683,5.8679,5.8675,5.8671,5.8823,5.8833,5.8842,5.8978,0,0,5.8872,5.8876,0,0,0,0,0,0,0,0,5.8353,5.8373,5.8548,5.8552,5.8555,5.8666,5.8641,5.8794,5.8683,5.8634,5.8674,5.867,5.8777,5.879,5.8828,5.8985,5.8992,5.8873,5.8879,5.8883,5.8886,0,0,0,0,0,0,0,5.8342,5.8366,5.8601,5.8551,5.8555,5.8548,5.8565,5.867,5.8724,5.8638,5.8637,5.8656,5.8778,5.8818,5.8831,5.8994,5.8873,5.8881,5.8887,5.8891,5.9269,5.9273,0,0,0,0,0,0,5.833,5.8358,5.8596,5.8606,5.8443,5.8557,5.8576,5.8634,5.8723,5.8733,5.8659,5.8655,5.8804,5.882,5.8836,5.9,5.8883,5.8892,5.8898,5.9265,5.927,5.9275,0,0,0,0,0,0,5.8323,5.8351,5.859,5.8482,5.8512,5.8566,5.8632,5.8639,5.868,5.874,5.8748,5.8691,5.8801,5.8823,5.8943,5.9005,5.8896,5.8905,5.926,5.9267,5.9272,5.9329,0,0,0,0,0,0,5.8314,5.8349,5.8403,5.8483,5.8518,5.8697,5.8636,5.8645,5.8698,5.8693,5.8772,5.8781,5.88,5.8929,5.8953,5.9017,5.8913,5.9255,5.9263,5.927,5.9322,5.9337,5.9349,0,0,0,0,0,5.8302,5.8412,5.8406,5.8435,5.8587,5.87,5.872,5.8741,5.8703,5.8756,5.8794,5.8779,5.8995,5.8941,5.8968,5.9036,5.9251,5.9261,5.927,5.9316,5.9334,5.9349,0,0,0,0,0,0,5.8335,5.8422,5.8417,5.8556,5.8622,5.8697,5.8765,5.876,5.8835,5.8827,5.8849,5.8866,5.8988,5.9024,5.8963,5.9171,5.9117,5.9132,5.9143,5.9161,5.9174,5.9162,5.8921,0,0,0,0,0,5.8359,5.8447,5.8517,5.8633,5.8666,5.871,5.876,5.8772,5.8839,5.8865,5.8912,5.8976,5.9058,5.9111,5.919,5.9327,5.9343,5.9387,5.94,5.9411,5.9424,5.9497,5.9517,5.9306,5.9306,5.9306,0,0,5.8408,5.8467,5.852,5.8641,5.8693,5.878,5.8733,5.8828,5.8892,5.8879,5.8996,5.9032,5.9104,5.9234,5.9293,5.9267,5.9486,5.9424,5.9432,5.9438,5.9509,5.9529,5.9546,5.9312,5.9311,5.931,0,0,5.8543,5.8597,5.8699,5.8752,5.8832,5.886,5.8884,5.8961,5.8986,5.9104,5.9095,5.9171,5.9312,5.9364,5.9408,5.9562,5.9549,5.9586,5.9657,5.9728,5.9745,5.976,5.9813,5.9832,5.9599,5.9599,5.9599,0,5.8593,5.8727,5.8751,5.8848,5.8899,5.8894,5.8995,5.9045,5.9145,5.918,5.9151,5.9328,5.9376,5.9516,5.9554,5.9591,5.9617,5.9577,5.9741,5.9756,5.977,5.9821,5.9841,5.9603,5.9603,5.9602,5.9602,0,5.8784,5.8877,5.895,5.9049,5.911,5.9208,5.9244,5.9302,5.9307,5.9338,5.9457,5.9515,5.9605,5.9639,5.9645,5.978,5.9761,5.9737,5.9683,5.9794,5.9842,5.9861,5.9609,5.9607,5.9606,5.9605,0,0,5.8944,5.9055,5.9081,5.9126,5.9213,5.9284,5.9381,5.9471,5.9519,5.9588,5.9668,5.9788,5.9766,5.9816,5.9828,5.989,6.0006,5.9858,5.9859,5.9882,6.0156,6.0173,6.0195,5.9999,6.0003,6.0006,6.0149,0,5.9085,5.926,5.9284,5.9437,5.9521,5.9517,5.9601,5.9662,5.9693,5.9767,5.9801,5.9885,5.985,5.988,5.9942,5.9979,6.0061,5.9969,6.0071,6.0074,6.0052,6.0221,6.0239,6.0372,6.0168,6.0171,6.0174,0,5.9274,5.9351,5.9513,5.9588,5.9624,5.97,5.9784,5.9856,5.9924,5.9942,5.9999,6.0002,6.0099,6.0043,6.0176,6.0112,6.0155,6.018,6.0185,6.0194,6.013,6.0233,6.0415,6.0434,6.0204,6.0201,6.0199,0,5.9372,5.9515,5.9631,5.9669,5.976,5.9812,5.9852,5.9917,5.9969,6.0042,6.0075,6.0157,6.0202,6.0264,6.0288,6.0245,6.0419,6.0365,6.0434,6.0434,6.047,6.0467,6.0661,6.0501,6.05,6.05,6.05,0,5.9527,5.9626,5.9676,5.9747,5.9856,5.9882,5.9989,6.0026,6.0084,6.0159,6.016,6.023,6.0259,6.0333,6.0352,6.0458,6.0479,6.0494,6.0498,6.0494,6.0491,6.0521,6.0512,6.0505,6.0504,6.0503,6.0502,0,5.9654,5.9692,5.9817,5.9893,5.9914,5.9992,6.0055,6.0122,6.0153,6.0249,6.0273,6.032,6.0407,6.0438,6.0544,6.0556,6.0679,6.0676,6.0657,6.0657,6.0725,6.0717,6.0942,6.0972,6.0794,6.0796,6.0797,0,5.975,5.9827,5.9911,5.9963,6.0005,6.0089,6.0143,6.017,6.0225,6.0309,6.0365,6.0453,6.0524,6.0663,6.0705,6.0785,6.0783,6.0856,6.0795,6.0788,6.0782,6.0777,6.0783,6.0867,6.0869,6.087,6.0872,0,5.9916,5.9931,6.001,6.0096,6.016,6.0228,6.0294,6.0336,6.0372,6.0434,6.0525,6.0581,6.0689,6.0775,6.0857,6.0895,6.0889,6.0891,6.0911,6.0907,6.0892,6.0899,6.0686,6.0885,6.0884,6.0883,6.0882,6.0882,6.0029,6.0097,6.0167,6.0254,6.0307,6.0368,6.0435,6.0474,6.0551,6.0643,6.0654,6.0751,6.0815,6.0925,6.0967,6.1041,6.1021,6.105,6.1057,6.1064,6.1068,6.0882,6.1056,6.1056,6.1056,6.1055,6.1055,0,6.0194,6.0239,6.0319,6.0412,6.048,6.0471,6.0543,6.06,6.0686,6.0748,6.0819,6.0922,6.1005,6.1054,6.1137,6.1187,6.1186,6.1208,6.1203,6.1212,6.1083,6.1057,6.1207,6.1207,6.1207,6.1207,6.1207,6.1207,6.0287,6.04,6.0423,6.0561,6.0604,6.0701,6.0743,6.0798,6.0848,6.0964,6.1034,6.1066,6.1122,6.1209,6.1284,6.1296,6.1325,6.1349,6.1358,6.1237,6.1221,6.1206,6.1181,6.1355,6.1356,6.1481,6.1482,6.1483]}]]